Regional Weather Roundup
Issued by NWS

Home | Current Version | Previous Version | Text Only | Print | Product List | Glossary Off
Versions: 1 2 3 4 5 6 7 8 9 10 11 12 13 14 15 16 17 18 19 20 21 22 23 24 25 26 27 28 29 30 31 32 33 34 35 36 37 38 39 40 41 42 43 44 45 46 47 48 49 50

000
ASUS43 KIND 210659
RWRIN

WEATHER ROUNDUP FOR INDIANA
NATIONAL WEATHER SERVICE INDIANAPOLIS IN
300 AM EDT TUE OCT 21 2014

NOTE: "FAIR" INDICATES FEW OR NO CLOUDS BELOW 12,000 FEET WITH NO
SIGNIFICANT WEATHER AND/OR OBSTRUCTIONS TO VISIBILITY.

* - STATION DOES NOT REPORT WEATHER SUCH AS PRECIPITATION OR FOG.

+ - STATION NOT QUALITY CONTROLLED BY THE NATIONAL WEATHER SERVICE.
    USE DATA WITH CAUTION...ESPECIALLY DEWPOINT AND RELATIVE
    HUMIDITY OBSERVATIONS.

INZ001>003-010>013-019-020-210800-
NORTHWEST INDIANA

CITY           SKY/WX    TMP DP  RH WIND       PRES   REMARKS
VALPARAISO     NOT AVBL

$$

LMZ046-743>745-210800-
SOUTHERN LAKE MICHIGAN

STATION/POSITION TIME  TEMP WIND        PRES
                       AIR  DIR/SP/G
                 (UTC) (F)  (DEG/KT/KT) (MB)
MICHIGAN CITY    0600   53  340/ 21/ 24   N/A

$$

INZ004-005-014>016-021>024-210800-
NORTH CENTRAL INDIANA

CITY           SKY/WX    TMP DP  RH WIND       PRES   REMARKS
GOSHEN         CLOUDY    49  42  77 NW7       29.96R
SOUTH BEND     CLOUDY    49  45  86 N5        29.98S

$$

INZ006>009-017-018-025>027-210800-
NORTHEAST INDIANA

CITY           SKY/WX    TMP DP  RH WIND       PRES   REMARKS
ANGOLA *+      CLOUDY    46  43  87 NW6       29.93R
FORT WAYNE     PTCLDY    47  41  80 W6        29.95R

$$

INZ028-029-035-036-043>045-051>053-210800-
WEST CENTRAL INDIANA

CITY           SKY/WX    TMP DP  RH WIND       PRES   REMARKS
GREENCASTLE +  MOCLDY    48  45  87 CALM      29.99R
LAFAYETTE      CLEAR     44  43  96 NW6       29.99R
TERRE HAUTE    MOCLDY    48  45  89 W3        29.99S

$$

INZ030>032-037>040-046>048-054>057-064-065-210800-
CENTRAL INDIANA

CITY           SKY/WX    TMP DP  RH WIND       PRES   REMARKS
INDIANAPOLIS   CLOUDY    48  45  89 NW7       29.97S
-EAGLE CREEK   CLOUDY    50  46  86 NW6       29.97R
KOKOMO *+      CLOUDY    50  45  81 NW8       29.97S
MT COMFORT *+  CLOUDY    48  48 100 NW7       29.97R
SHELBYVILLE    PTCLDY    49  45  86 NW7       29.96R

$$

INZ033-034-041-042-049-050-058-059-210800-
EAST CENTRAL INDIANA

CITY           SKY/WX    TMP DP  RH WIND       PRES   REMARKS
MUNCIE         CLOUDY    49  46  90 NW7       29.95R

$$

INZ060-061-067>069-081>083-085>088-210800-
SOUTHWEST INDIANA

CITY           SKY/WX    TMP DP  RH WIND       PRES   REMARKS
EVANSVILLE     CLEAR     50  44  80 SW3       30.00R
HUNTINGBURG *+ CLEAR     52  43  71 CALM      29.99S

$$

INZ062-063-066-070>080-084-089>092-210800-
SOUTH CENTRAL AND SOUTHEAST INDIANA

CITY           SKY/WX    TMP DP  RH WIND       PRES   REMARKS
BLOOMINGTON    PTCLDY    46  43  89 CALM      29.98R

$$



USA.gov is the U.S. government's official web portal to all federal, state and local government web resources and services.